Location: Henham
(51.9333°N, 0.2500°E)
Time: 02:59:04
(UTC+00:00)

STARLINK-71 - Pass Details

Date: 23 October 2019
Orbit: 548 x 551 km, 53.0° (Epoch: 11 November)

Event Time Altitude Azimuth Distance (km) Brightness Sun altitude
Rises 19:15:43 0° 286° (WNW) 2,721 8.6 -23.2°
Reaches altitude 10° 19:17:58 10° 284° (WNW) 1,826 7.4 -23.5°
Enters shadow 19:21:48 65° 231° (SW) 606 3.8 -24.1°
